This demonstration page uses our WeatherBlox Daily Observations layout. Learn more.

Left ArrowRight Arrow

Hourly Observations for December 7, 2015

Temp ( °F °C ) Dew Point ( °F °C ) Humidity (%) Winds ( mph kmh ) Pressure ( in mb ) Visibility ( mi km ) Precip ( " mm )
12:58 am 00:58 Clear 26 -3.3 26 -3.6 98 98 ENE 2 4 30.26 1025 10 16 0.00 0.00
1:58 am 01:58 Clear 28 -2.1 28 -2.3 99 99 SE 3 6 30.24 1024 10 16 0.00 0.00
3:58 am 03:58 Clear 28 -2.5 26 -3.1 96 96 SSE 2 4 30.22 1024 10 16 0.00 0.00
4:58 am 04:58 Clear 28 -2 27 -2.6 96 96 SE 6 9 30.21 1023 10 16 0.00 0.00
5:58 am 05:58 Clear 30 -1 29 -1.8 94 94 SSE 10 17 30.18 1022 10 16 0.00 0.00
6:58 am 06:58 Clear 30 -1.1 28 -2.1 93 93 ESE 10 17 30.17 1022 10 16 0.00 0.00
7:58 am 07:58 Sunny 30 -1.1 28 -2.1 93 93 SE 9 15 30.16 1021 10 16 0.00 0.00
8:58 am 08:58 Sunny 33 0.5 31 -0.8 91 91 VRB 6 9 30.13 1020 10 16 0.00 0.00
9:58 am 09:58 Sunny 39 3.8 34 0.9 82 82 SSE 10 17 30.12 1020 10 16 0.00 0.00
10:58 am 10:58 Sunny 44 6.9 36 2 71 71 S 12 19 30.08 1019 10 16 0.00 0.00
11:58 am 11:58 Sunny 51 10.5 34 1.2 53 53 SSW 14 22 30.06 1018 10 16 0.00 0.00
12:58 pm 12:58 Sunny 53 11.4 33 0.6 48 48 S 15 24 29.99 1016 10 16 0.00 0.00
1:58 pm 13:58 Sunny 54 12.3 32 0 43 43 SW 10 17 29.98 1015 10 16 0.00 0.00
2:58 pm 14:58 Sunny 55 12.5 32 -0.2 42 42 WSW 10 17 29.97 1015 10 16 0.00 0.00
3:58 pm 15:58 Sunny 54 12.1 30 -0.9 41 41 WSW 9 15 29.98 1015 10 16 0.00 0.00
4:58 pm 16:58 Clear 46 7.8 31 -0.3 57 57 SSW 3 6 30.00 1016 10 16 0.00 0.00
5:58 pm 17:58 Clear 42 5.7 32 -0.2 66 66 SSW 5 7 29.98 1015 10 16 0.00 0.00
6:58 pm 18:58 Clear 37 2.9 29 -1.5 73 73 SSE 2 4 29.97 1015 10 16 0.00 0.00
7:58 pm 19:58 Clear 40 4.2 31 -0.3 73 73 SSE 5 7 29.97 1015 10 16 0.00 0.00
8:58 pm 20:58 Clear 33 0.7 29 -1.5 85 85 Calm 29.96 1015 10 16 0.00 0.00
9:58 pm 21:58 Clear 32 0 29 -1.8 88 88 SSW 2 4 29.97 1015 10 16 0.00 0.00
10:58 pm 22:58 Clear 30 -1.2 28 -2.1 94 94 SSE 3 6 29.94 1014 10 16 0.00 0.00
11:58 pm 23:58 Clear 28 -2 27 -2.6 96 96 Calm 29.94 1014 10 16 0.00 0.00

Powered by AerisWeather